{"data":{"norad_id":63138,"epoch":"2026-09-21T09:36:11.539584Z","epoch_age_seconds":84432,"freshness":"FRESH","line1":"1 63138U 25043G   26264.40013356  .00156181  00000+0  11967-2 0  9994","line2":"2 63138  42.9993 150.9194 0000464  11.4889 348.5989 15.70863394 90251","mean_motion":15.70863394,"eccentricity":4.64e-5,"inclination_deg":42.9993,"raan_deg":150.9194,"arg_perigee_deg":11.4889,"mean_anomaly_deg":348.5989,"bstar":0.0011967,"rev_number":9025,"period_min":91.669333278766,"perigee_km":356.11571414293,"apogee_km":356.7406817933,"semimajor_km":6734.5651979681,"source":"CELESTRAK","updated_at":"2026-09-22T09:00:49.791110Z"}}